SL-12 R/B(2), 22061

Orbit data source: Space-Track

SL-12 R/B(2), 22061 is space debris in MEO originally from a launch on Thu, 30 Jul 1992 UTC launched from the Tyuratam Missile And Space Complex (TTMTR). Debris objects in space refer to the collection of defunct objects orbiting the Earth. Examples of debris include non-operational satellites, rocket bodies, and fragments generated from explosions, collisions, or faulty payload assembly.

Loading next visibility...
Identifier
22061, 1992-047F
Orbit
MEO
Country
Flag of CISCIS
Related business
Manufacturer
NPO Energiya
Mission
Spacecraft
Bus & Motor
BLOK DM, Unknown motor
Mass
2,440 kg wet, 2,440 kg dry
Launch date (UTC)
1992-07-30 (33 years ago)
Launch vehicle
Unknown
Launch site
Tyuratam Missile And Space Complex (TTMTR)
Object type
Payload
Rocket body
Debris
Shape & HBR
Cyl, 3.1 m
Radar Cross Section
23.597 m², Large (>1 m²)

Expand to show TLE details & history
Last TLE update: 3 days ago

TLE from 3 days ago
0 SL-12 R/B(2)
1 22061U 92047F   25346.40064661 -.00000061  00000-0  00000-0 0  9998
2 22061  64.2485 307.7173 0003009 279.6814 258.8782  2.13332134259917
Epoch: 2025-12-12T09:36Z
TLE epoch observation values (Epoch: 2025-12-12T09:36:55.867Z)
Latitude
1.27118°
Longitude
-98.48366°
Altitude
19,113.41 km
Speed
3.954 km/s
True Right ascension
08h 28m 22s
True Declination
1° 16' 09"
Sunlit
Object was in daylight at epoch
Visualization orbit readout
Latitude
Unknown
Longitude
Unknown
Altitude
Unknown
Speed
Unknown
Apparent Right ascension
Unknown
Apparent Declination
Unknown
Sunlit
N/A
Visualization observer readout
Local Sidereal Time
13:18:50
Azimuth
Unknown
Elevation
Unknown
Doppler factor
Unknown
Orbital elements
Apogee altitude
19,118.85 km
Perigee altitude
19,103.511 km
Semi-major axis
25,489.317 km
Eccentricity
0.0003
Inclination
64.2485°
RAAN
307.7173°
Arg. of periapsis
279.6814°
True anomaly
258.84437°
Mean anomaly
258.8782°
Eccentric anomaly
258.86128°
Mean motion
0.53334 °/min
Orbital period
674.99 mins
BSTAR
0
Loading maneuver chart data...
Computing Atmospheric mass density...
Loading historical data...
Loading historical data...
Loading historical data...
Loading historical data...
Loading historical data...
Loading historical data...
Loading historical data...

Documentation

Showing up to 5 results
|